RH
52 52 56 58 60 64 63 62 62 62 65 67 66 64 64 64 68 88 88 86 92 92 84 83 77 79 90 79 62 47 46 50 54 42 40 42 51 44 43 43 40 44 34
52 61 63 63 64 63 64 61 60 65 65 67 68 69 68 66 75 88 93 85 83 77 76 85 77 76 81 68 50 61 57 61 56 68 53 33 46 48 45 52 37 30 35
51 55 65 70 72 75 72 69 66 65 65 63 67 70 70 72 84 84 94 74 70 68 64 72 76 75 70 52 61 54 48 52 50 41 39 27 32 31 39 45 49 48 38
46 54 64 63 65 64 67 66 66 67 66 66 66 68 74 79 80 75 75 67 72 64 78 74 68 65 59 63 56 64 59 56 42 31 28 30 28 40 34 30 32 37 54
53 55 60 59 59 59 60 61 61 64 64 65 64 66 74 80 76 74 72 67 70 91 77 66 60 72 79 70 47 61 59 41 31 30 30 29 34 40 42 35 43 50 62
51 55 56 59 59 62 61 61 64 65 67 70 69 65 75 67 89 94 77 76 88 81 69 67 65 68 63 73 66 63 58 52 53 41 34 45 54 45 40 46 51 65 86
55 53 56 60 62 64 63 64 65 68 70 80 78 70 76 75 98 97 95 76 70 69 70 64 48 42 53 42 58 56 58 56 60 60 57 53 55 55 62 68 71 75 87
55 54 55 60 61 63 68 69 71 70 83 88 83 82 88 92 100 100 94 70 70 66 62 60 58 55 52 44 42 41 40 39 41 36 49 50 52 58 65 70 75 73 69
50 54 54 59 62 65 70 74 72 81 92 90 92 93 93 98 100 97 81 66 67 68 63 59 51 48 64 59 46 48 46 43 53 64 68 72 77 73 67 56 60 71 85
47 52 57 61 63 67 72 77 89 90 93 96 96 87 97 97 100 96 72 56 68 57 58 54 76 53 72 77 50 48 47 51 46 44 40 46 51 59 71 69 64 80 88
48 56 62 65 69 72 86 90 94 97 97 96 95 92 88 85 86 90 80 54 48 40 36 34 35 76 81 73 66 49 56 64 48 36 30 28 31 38 48 60 66 65 82
59 64 68 70 67 76 88 93 94 95 94 94 94 98 93 79 85 86 78 64 59 41 40 33 47 84 81 78 52 77 81 75 27 28 27 29 30 32 43 57 72 64 65
70 75 79 79 77 84 89 95 93 90 85 84 92 80 65 59 56 81 77 75 68 41 34 57 77 80 73 64 73 66 68 28 27 29 30 30 30 32 48 54 68 64 68
84 85 83 86 91 88 80 83 83 76 74 71 64 57 52 49 47 44 42 44 62 44 61 43 59 57 62 49 47 41 31 31 30 30 29 28 27 29 32 38 39 40 43
86 84 86 86 90 95 96 90 72 69 64 54 53 51 50 48 46 53 47 36 34 45 47 39 35 31 31 31 32 33 32 32 31 31 30 28 28 28 30 31 33 35 42
76 72 74 80 83 85 86 89 98 95 98 97 90 58 49 73 82 81 80 75 70 70 37 33 31 29 30 30 30 31 32 40 32 31 31 30 29 30 29 30 31 34 36
72 76 75 74 74 76 76 72 76 85 98 99 90 85 79 82 82 83 81 76 77 67 31 30 29 30 30 29 27 28 32 37 42 32 31 31 28 28 28 29 31 33 35
70 89 60 60 59 62 64 60 57 61 63 63 86 68 88 83 85 80 74 66 35 42 28 28 30 30 30 30 29 30 31 31 32 31 32 31 29 27 28 28 29 33 32
61 55 55 57 60 70 55 52 47 50 53 57 52 60 73 86 81 76 74 32 30 29 27 28 30 31 32 31 34 38 38 35 35 31 31 32 29 27 29 27 30 46 39
60 84 69 66 66 49 45 43 44 49 53 54 52 47 42 45 36 35 36 34 30 28 26 26 29 32 34 36 36 35 34 35 33 30 32 32 30 26 26 26 25 26 28
58 66 74 55 45 41 40 42 46 50 50 55 55 49 58 38 35 34 33 32 30 28 26 25 25 31 36 36 34 32 29 28 30 30 29 31 29 26 28 27 26 25 25
56 59 51 40 39 40 41 44 46 47 52 58 49 50 72 36 33 33 31 30 30 29 25 30 27 26 25 27 31 27 27 28 30 29 30 28 29 26 24 24 24 24 23
47 44 37 37 38 54 44 42 42 42 42 43 42 43 38 35 33 30 29 29 31 28 28 29 27 24 26 26 26 30 25 28 31 30 28 28 28 26 25 25 24 24 26
38 36 35 37 38 40 38 39 37 48 39 40 40 42 39 35 31 30 28 30 30 28 27 26 23 22 29 26 29 29 29 31 30 35 31 29 30 32 25 25 25 27 24
36 36 37 38 40 35 37 35 36 36 37 38 38 39 35 33 29 28 30 31 29 28 27 25 24 30 31 31 30 31 70 76 47 73 29 30 31 32 26 25 26 26 26
35 39 38 37 36 33 35 36 36 36 34 34 34 35 33 31 29 29 31 31 29 27 27 24 26 30 35 32 36 72 84 81 57 86 39 30 29 26 26 29 28 24 26
Wind_Speed
18 17 17 15 16 16 15 15 15 14 13 14 13 13 12 12 11 10 7 7 9 10 8 8 8 7 5 4 7 5 6 6 10 11 11 11 12 13 14 13 15 14 14
16 15 15 15 16 15 15 15 13 13 13 14 13 13 13 12 12 13 9 9 10 10 6 6 7 5 7 3 5 3 6 7 8 14 11 11 10 12 12 13 12 13 14
16 16 15 16 14 14 14 13 12 12 13 14 13 13 12 11 14 13 9 5 11 9 7 6 7 6 4 3 4 5 6 7 9 10 12 10 9 9 12 11 11 13 11
17 17 16 17 16 14 13 11 11 12 12 13 13 12 11 10 14 13 9 5 6 6 6 6 5 5 2 2 3 5 5 8 8 9 9 9 9 10 11 12 13 12 11
15 17 16 14 13 13 12 11 11 11 11 12 12 12 11 10 11 12 6 5 7 5 7 6 5 12 17 11 6 7 7 8 8 8 8 8 9 12 12 12 13 13 13
16 16 14 12 12 11 10 10 10 10 11 10 12 13 11 10 11 7 6 6 8 9 8 8 9 11 11 12 10 9 6 6 7 8 8 9 11 12 12 13 13 13 9
14 13 12 11 11 10 9 9 9 9 8 8 8 10 10 8 13 12 10 11 11 9 9 8 6 7 4 5 4 4 6 5 4 6 8 9 11 13 13 15 14 12 11
13 12 11 11 10 9 9 8 8 7 6 7 9 9 9 8 13 12 7 11 10 10 9 7 8 6 7 3 3 3 3 3 5 6 7 8 9 10 11 12 11 15 12
13 12 11 11 10 10 10 10 9 8 9 9 9 9 11 10 11 12 11 12 11 10 9 8 8 8 4 5 3 4 3 4 5 8 10 10 11 7 8 11 14 13 11
12 12 11 11 10 11 11 11 8 9 10 8 9 12 13 11 9 9 11 10 11 9 9 9 13 8 4 6 4 4 4 5 6 7 5 3 6 7 8 13 12 11 10
11 12 12 11 12 12 13 12 11 11 11 11 12 11 14 14 11 7 8 10 10 9 9 8 8 6 5 5 6 6 4 6 3 3 5 6 7 7 8 10 13 13 11
14 14 14 14 12 13 15 13 13 12 12 12 13 10 8 11 9 8 7 11 8 9 8 8 8 6 6 6 3 6 11 12 3 5 7 8 8 8 7 7 9 12 13
16 16 15 15 14 14 15 14 11 12 12 11 11 10 11 10 8 10 12 11 7 8 7 12 12 8 8 8 1 8 10 5 5 6 7 7 7 7 6 4 7 8 13
16 15 14 14 13 13 11 11 11 11 12 11 11 12 11 11 10 10 10 10 12 11 14 9 7 6 8 2 5 2 5 6 6 6 6 7 6 7 8 7 8 8 8
15 15 14 12 12 10 9 5 10 10 8 11 11 11 12 12 11 11 11 10 9 9 10 8 6 3 3 3 4 4 5 5 5 6 6 7 7 7 8 8 8 9 9
17 13 11 11 10 10 10 10 20 13 16 15 11 8 7 16 16 15 14 15 16 13 6 5 4 4 3 4 4 5 5 5 5 5 6 6 7 8 8 8 9 9 10
16 15 11 12 11 12 11 10 11 9 19 18 16 15 13 16 17 15 14 14 10 7 4 4 4 4 4 4 4 4 6 5 3 5 5 5 6 6 7 8 9 9 10
16 13 12 11 11 11 11 11 11 11 12 9 14 9 14 17 16 17 15 11 6 5 5 5 4 4 4 4 4 5 4 4 5 4 5 5 6 7 8 9 9 9 10
15 11 11 11 11 9 11 12 11 12 12 11 10 9 10 13 12 11 10 5 5 5 5 5 4 4 4 5 4 5 4 5 5 4 5 5 5 6 6 9 9 8 9
11 12 12 11 9 11 11 11 11 11 11 11 11 12 11 11 10 11 8 5 5 5 5 5 5 4 5 4 4 5 5 3 3 4 4 5 5 5 6 7 8 8 8
11 12 12 11 11 11 10 11 11 10 10 10 11 12 15 12 11 10 7 6 6 6 5 5 6 6 5 5 4 4 4 4 4 3 4 4 5 6 5 6 7 7 7
12 11 11 12 11 11 11 10 11 12 12 12 11 12 12 9 10 9 9 7 7 6 5 5 5 5 5 5 4 4 4 4 4 4 4 4 5 5 5 6 6 6 6
12 14 13 11 11 11 11 11 11 11 12 12 12 14 13 10 10 10 9 8 7 7 6 5 5 5 5 5 5 4 5 5 4 2 3 4 5 5 5 6 6 7 7
13 13 13 11 11 11 11 11 11 11 12 12 13 14 13 11 11 11 10 9 8 8 7 6 5 7 6 6 5 5 5 5 4 4 0 5 6 3 6 7 7 8 8
12 12 12 11 12 12 11 12 12 12 12 12 12 13 12 11 11 11 10 9 9 8 8 7 6 8 8 8 8 9 8 5 3 7 2 5 7 6 7 6 7 7 7
12 12 12 11 12 11 12 12 12 13 12 12 12 12 12 12 12 12 11 11 10 9 10 7 9 10 11 9 9 10 6 4 1 6 5 6 6 6 6 7 8 7 6
Wind_Direction
215 214 217 219 222 222 223 223 223 222 221 227 231 230 226 219 202 186 210 230 204 220 229 253 267 264 264 247 230 271 278 324 303 313 320 336 321 317 320 318 314 305 307
211 213 213 217 220 220 222 226 224 223 222 227 228 228 227 219 191 181 177 239 241 248 254 237 256 243 246 221 259 272 328 321 313 307 316 317 314 323 314 309 302 311 317
209 210 217 220 220 221 221 220 220 219 220 221 221 228 224 217 188 192 156 220 251 244 254 249 241 219 196 321 293 340 327 326 316 316 306 316 324 316 323 311 315 312 327
207 211 218 220 222 227 229 225 219 219 221 220 222 222 218 187 201 197 195 261 234 232 244 208 195 182 181 220 301 332 347 324 312 290 315 317 325 348 323 329 326 330 329
203 211 219 222 222 225 226 220 216 214 214 221 218 216 204 194 195 197 209 219 198 203 185 172 113 68 60 50 349 23 347 324 323 323 322 329 342 337 336 333 328 324 330
206 212 216 217 219 220 220 217 212 210 208 207 214 212 193 196 163 152 193 167 184 171 125 108 112 123 84 67 64 49 28 327 321 331 334 342 348 333 335 337 329 330 323
207 210 210 209 212 210 204 208 210 206 197 189 206 204 175 177 130 145 182 160 157 131 131 142 129 87 89 93 123 188 189 203 255 302 326 341 331 338 332 331 334 333 335
200 202 198 196 201 193 181 182 188 186 161 157 171 165 149 125 133 156 188 134 127 142 122 108 98 103 54 13 3 344 336 335 345 330 333 343 342 341 341 321 338 347 341
195 193 186 187 183 178 173 163 171 140 131 149 148 142 124 124 133 136 156 149 129 113 103 106 114 102 70 334 360 4 358 8 188 215 248 263 270 279 324 347 5 355 342
183 175 171 172 164 168 153 138 112 127 129 122 120 131 115 126 145 163 154 131 131 119 113 110 57 99 77 359 17 9 7 17 0 351 19 74 34 28 38 32 13 4 350
152 145 148 150 153 142 120 119 117 110 108 112 108 116 127 138 139 124 117 136 138 147 137 146 117 107 84 47 348 24 2 304 310 328 26 32 27 36 36 46 36 29 14
136 136 141 146 134 135 125 121 120 117 116 114 111 105 119 126 120 88 82 103 130 139 139 113 118 127 93 33 17 319 282 267 13 28 31 29 25 24 35 45 71 53 43
136 135 134 136 133 127 128 124 120 126 127 128 126 136 134 134 119 86 86 94 91 130 117 101 126 149 145 124 46 297 288 26 25 40 36 30 31 40 11 62 130 101 76
133 136 135 129 120 120 127 130 132 139 138 143 146 140 143 138 136 135 130 114 102 104 121 139 103 86 49 53 209 228 54 29 20 32 34 40 37 37 34 24 40 50 44
130 128 122 111 104 98 71 96 146 139 152 148 151 152 151 150 150 147 148 153 149 131 131 155 168 134 112 103 87 63 47 39 33 44 38 42 41 47 45 40 45 49 53
132 130 124 122 121 119 115 92 47 49 58 55 55 144 104 107 111 101 99 101 117 163 169 140 126 113 99 86 78 88 66 53 32 40 48 46 48 42 57 53 58 53 55
126 129 128 133 138 140 138 135 120 71 66 51 52 67 89 118 109 109 117 125 153 196 146 122 125 122 111 96 88 80 82 52 46 50 51 50 58 63 59 61 63 64 64
128 139 143 142 144 142 144 141 138 140 138 122 48 83 104 111 117 128 138 150 163 205 125 126 127 131 121 101 90 85 79 74 67 62 58 51 55 59 55 58 69 67 66
143 146 137 138 137 145 147 149 150 148 144 126 126 103 91 94 121 147 177 187 151 135 131 124 129 137 126 110 102 87 60 57 37 69 73 63 68 79 90 99 89 60 70
139 115 128 139 153 153 152 153 149 149 142 153 149 139 137 143 155 167 200 163 148 141 136 136 139 137 121 126 127 126 132 141 105 99 79 86 71 70 81 77 74 77 73
140 144 145 153 161 158 155 152 147 149 157 152 154 153 162 169 167 176 171 160 155 146 150 144 158 140 147 157 137 131 124 111 101 101 111 92 95 96 92 92 87 82 81
147 155 167 165 155 158 156 151 155 155 157 164 152 147 179 202 174 169 162 159 145 144 143 148 152 165 150 141 141 134 127 124 115 109 108 117 114 99 96 101 103 98 89
158 165 166 158 164 144 157 161 165 167 165 157 154 157 179 190 169 169 160 149 146 147 146 157 154 142 139 148 137 156 141 117 102 74 123 125 124 111 105 105 101 87 72
167 170 166 164 159 167 167 168 167 167 163 160 159 165 182 168 169 162 159 150 151 149 152 160 166 146 143 151 138 138 124 126 140 122 265 114 112 141 103 101 95 95 93
173 174 171 169 163 179 162 171 165 165 169 164 165 173 171 172 166 161 156 156 155 157 158 152 158 150 160 156 144 105 89 48 16 338 179 126 114 129 118 118 117 107 104
179 182 180 172 177 173 171 169 169 170 171 173 170 174 170 175 166 164 163 163 159 161 159 163 153 158 156 154 123 101 116 125 164 316 306 143 154 145 127 122 127 125 117